Weather in Oruzhba

Russia / Republic of Dagestan     41°46′26″N   48°26′04″E
temp.,
°C
wind,
m/s
gust,
m/s
humid.,
%
clouds,
%
prec.,
mm/h
press.,
hPa
HPBL,
m
13 april, tue
tue1300:00+10ssw11750 0.0 102210
03:00+10s11765 0.0 102110
06:00+10sw0075100 0.0 102210
09:00+17ne11515 0.0 1021545
12:00+19ene45450 0.0 1020823
15:00+17e34450 0.0 1018569
18:00+14ene11561 0.0 101711
21:00+11w226266 0.0 101811
14 april, wed
wed1400:00+11nw22620 0.0 101611
03:00+9nw1180100 0.0 101615
06:00+10nw397549 0.2 1016261
09:00+14n57666 0.2 1016722
12:00+15n786887 0.3 1015799
15:00+14nnw61070100 1.6 1014808
18:00+13nw357419 0.1 1015149
21:00+10wsw11853 0.1 101613
15 april, thu
thu1500:00+11wsw22785 0.0 101515
03:00+11ssw337278 0.0 101620
06:00+11ssw22694 0.0 101724
09:00+18ese34505 0.0 1016899
12:00+19e55481 0.0 10151065
15:00+18ese45505 0.0 1016830
18:00+14se3566100 0.0 1016101
21:00+12ssw3466100 0.0 101753
16 april, fri
fri1600:00+13ssw3361100 0.0 101638
03:00+12sw2266100 0.0 101511
06:00+13sw2266100 0.0 101613
09:00+19ese234592 0.0 1017777
12:00+21ese66335 0.0 10161296
15:00+19ese663813 0.0 1015878
18:00+14se356860 0.4 1016108
21:00+12se1166100 0.4 101610
17 april, sat
sat1700:00+11nnw227486 0.0 101532
03:00+10nw35775 0.0 101586
06:00+10nw3778100 0.0 1016172
09:00+15nnw5757100 0.0 1016481
12:00+16n5754100 0.0 1016585
15:00+15n6955100 0.0 1017515
18:00+13nw4962100 0.0 1019273
21:00+13wnw2356100 0.0 102174